GW5258 Weather Reports


time (UTC)temp
F
wind
direction
speed
knots
gust
knots
rain 1hr
in
rain 24hr
in
rain mn
in
humidity
%
barometer
mb
20260510204113 66 218 0.9 1.7 0.07 0.08 0.08 96 1016.1
20260510203610 67 225 0.9 0.9 0.00 0.07 0.07 95 1016.1
20260510203107 67 64 0.0 0.0 0.00 0.07 0.07 94 1016.1
20260510202606 67 233 0.0 0.9 0.00 0.07 0.07 93 1016.0
20260510202056 68 234 0.0 0.0 0.00 0.07 0.07 92 1016.1
20260510201554 69 234 0.0 0.9 0.00 0.07 0.07 90 1016.0
20260510201050 70 234 0.9 0.9 0.00 0.07 0.07 89 1016.1
20260510200546 68 257 0.9 0.9 0.00 0.07 0.07 93 1016.1
20260510200044 67 348 0.9 0.9 0.31 0.07 0.07 92 1016.2
20260510195542 67 192 0.0 0.9 0.42 0.07 0.07 91 1016.2
20260510195037 70 98 0.0 0.0 0.07 0.01 0.01 81 1016.1
20260510194533 73 356 0.0 0.9 0.00 0.00 0.00 65 1016.0
20260510194029 74 16 0.9 1.7 0.00 0.00 0.00 63 1015.9
20260510193524 76 65 1.7 2.6 0.00 0.00 0.00 55 1015.9
20260510193020 77 324 0.9 2.6 0.00 0.00 0.00 54 1015.7
20260510192510 78 187 3.5 7.8 0.00 0.00 0.00 51 1015.8
20260510192007 76 80 1.7 3.5 0.00 0.00 0.00 53 1016.0
20260510191503 76 49 0.0 5.2 0.00 0.00 0.00 52 1015.9
20260510190959 77 251 0.0 3.5 0.00 0.00 0.00 59 1015.9
20260510190456 77 88 0.9 7.0 0.00 0.00 0.00 51 1016.1
20260510185953 78 257 0.9 1.7 0.00 0.00 0.00 51 1016.1
20260510185451 76 39 2.6 3.5 0.00 0.00 0.00 54 1016.2
20260510184948 76 91 0.9 2.6 0.00 0.00 0.00 53 1016.1
20260510184445 75 115 0.0 1.7 0.00 0.00 0.00 52 1016.1
20260510183944 75 54 1.7 3.5 0.00 0.00 0.00 55 1016.1
20260510183441 77 72 0.9 0.9 0.00 0.00 0.00 54 1015.9
20260510182941 77 76 0.0 6.1 0.00 0.00 0.00 51 1016.0
20260510182437 76 64 3.5 6.1 0.00 0.00 0.00 50 1015.9
20260510181933 76 92 0.9 5.2 0.00 0.00 0.00 53 1015.9
20260510181432 77 208 0.9 3.5 0.00 0.00 0.00 53 1015.9
20260510180927 78 79 1.7 3.5 0.00 0.00 0.00 52 1015.7
20260510175441 77 110 4.3 9.6 0.00 0.00 0.00 51 1015.9
20260510174936 77 110 4.3 9.6 0.00 0.00 0.00 51 1015.9
20260510174435 76 22 1.7 5.2 0.00 0.00 0.00 51 1015.9
20260510173931 76 38 3.5 3.5 0.00 0.00 0.00 52 1015.9
20260510173427 77 64 0.0 1.7 0.00 0.00 0.00 52 1015.8
20260510172924 76 71 0.9 1.7 0.00 0.00 0.00 52 1015.8
20260510172420 74 352 0.0 0.9 0.00 0.00 0.00 59 1016.0
20260510171916 71 87 0.0 0.9 0.00 0.00 0.00 67 1016.1
20260510171413 71 237 0.0 0.9 0.00 0.00 0.00 69 1016.4
20260510170910 71 71 0.9 0.9 0.00 0.00 0.00 64 1016.0
20260510170407 73 73 0.9 0.9 0.00 0.00 0.00 62 1016.1
20260510165901 73 50 2.6 2.6 0.00 0.00 0.00 54 1015.9
20260510165358 75 98 6.1 7.8 0.00 0.00 0.00 52 1016.2
20260510164855 75 82 0.9 3.5 0.00 0.00 0.00 52 1016.0
20260510164353 76 73 1.7 5.2 0.00 0.00 0.00 55 1016.0
20260510163852 76 143 0.9 6.1 0.00 0.00 0.00 50 1015.8
20260510163350 77 43 1.7 2.6 0.00 0.00 0.00 49 1015.8
20260510162849 76 217 0.9 3.5 0.00 0.00 0.00 50 1015.8
20260510162347 76 82 1.7 2.6 0.00 0.00 0.00 50 1016.0
20260510161842 76 48 0.9 2.6 0.00 0.00 0.00 51 1016.0
20260510161339 76 96 1.7 2.6 0.00 0.00 0.00 49 1016.0
20260510160836 75 71 0.9 2.6 0.00 0.00 0.00 54 1016.0
20260510160333 76 104 3.5 5.2 0.00 0.00 0.00 53 1015.9
20260510155832 75 216 3.5 6.1 0.00 0.00 0.00 51 1016.0
20260510155329 75 189 1.7 2.6 0.00 0.00 0.00 54 1016.0
20260510154825 75 76 2.6 7.0 0.00 0.00 0.00 52 1016.1
20260510154321 75 40 1.7 2.6 0.00 0.00 0.00 53 1016.0
20260510153815 75 80 0.9 5.2 0.00 0.00 0.00 54 1016.1
20260510153312 74 93 4.3 11.3 0.00 0.00 0.00 54 1016.2
20260510152809 74 201 1.7 7.0 0.00 0.00 0.00 53 1016.0
20260510152307 74 97 5.2 7.0 0.00 0.00 0.00 53 1015.9
20260510151802 74 89 2.6 5.2 0.00 0.00 0.00 55 1015.8
20260510151300 74 116 3.5 5.2 0.00 0.00 0.00 56 1015.8
20260510150755 73 181 0.9 5.2 0.00 0.00 0.00 57 1016.0
20260510150251 72 186 0.9 8.7 0.00 0.00 0.00 58 1015.9
20260510145747 73 117 1.7 5.2 0.00 0.00 0.00 57 1016.1
20260510145245 72 358 0.9 5.2 0.00 0.00 0.00 57 1016.1
20260510144740 72 163 1.7 2.6 0.00 0.00 0.00 60 1016.4
20260510144238 72 126 1.7 3.5 0.00 0.00 0.00 59 1016.2
20260510143731 72 209 1.7 2.6 0.00 0.00 0.00 64 1016.2
20260510143228 70 192 0.9 3.5 0.00 0.00 0.00 61 1016.0
20260510142719 70 206 1.7 5.2 0.00 0.00 0.00 65 1016.2
20260510142216 69 94 1.7 5.2 0.00 0.00 0.00 65 1016.1
20260510141713 69 89 5.2 6.1 0.00 0.00 0.00 68 1016.4
20260510141211 68 105 0.0 5.2 0.00 0.00 0.00 69 1016.2
20260510140707 68 106 4.3 7.0 0.00 0.00 0.00 69 1016.4
20260510140207 66 99 0.9 1.7 0.00 0.00 0.00 74 1016.4
20260510135702 66 93 1.7 1.7 0.00 0.00 0.00 78 1016.4
20260510135158 65 131 0.9 3.5 0.00 0.00 0.00 78 1016.3
20260510134655 65 90 0.9 0.9 0.00 0.00 0.00 77 1016.4
20260510134153 65 123 1.7 1.7 0.00 0.00 0.00 78 1016.3
20260510133649 65 91 0.9 1.7 0.00 0.00 0.00 79 1016.2
20260510133144 65 87 2.6 3.5 0.00 0.00 0.00 76 1016.3
20260510132641 65 79 0.9 2.6 0.00 0.00 0.00 76 1016.1
20260510132138 64 150 0.0 0.9 0.00 0.00 0.00 80 1016.2
20260510131635 64 107 0.9 1.7 0.00 0.00 0.00 77 1015.9
20260510131133 63 97 2.6 3.5 0.00 0.00 0.00 78 1015.9
20260510130629 62 88 1.7 2.6 0.00 0.00 0.00 85 1015.9
20260510130127 60 107 1.7 2.6 0.00 0.00 0.00 84 1016.0
20260510125623 58 117 0.9 1.7 0.00 0.00 0.00 90 1016.0
20260510125119 56 89 0.0 2.6 0.00 0.00 0.00 99 1016.0
20260510124616 55 97 1.7 2.6 0.00 0.00 0.00 99 1016.0
20260510124113 54 161 0.0 0.0 0.00 0.00 0.00 99 1016.1
20260510123608 53 162 0.0 0.0 0.00 0.00 0.00 99 1016.4
20260510123105 53 191 0.0 0.0 0.00 0.00 0.00 99 1016.0
20260510122601 53 191 0.0 0.0 0.00 0.00 0.00 99 1016.1
20260510122057 52 191 0.0 0.0 0.00 0.00 0.00 99 1016.0
20260510121554 50 191 0.0 0.0 0.00 0.00 0.00 99 1016.0
20260510121051 49 191 0.0 0.0 0.00 0.00 0.00 99 1016.0
20260510120550 48 191 0.0 0.0 0.00 0.00 0.00 99 1015.9
20260510120049 47 191 0.0 0.0 0.00 0.00 0.00 99 1015.9
20260510115547 47 191 0.0 0.0 0.00 0.00 0.00 99 1015.8
20260510115044 47 191 0.0 0.0 0.00 0.00 0.00 99 1015.9
20260510114540 47 191 0.0 0.0 0.00 0.00 0.00 99 1015.8
20260510114036 46 191 0.0 0.0 0.00 0.00 0.00 99 1015.7
20260510113531 46 191 0.0 0.0 0.00 0.00 0.00 99 1015.6
20260510113029 46 191 0.0 0.0 0.00 0.00 0.00 99 1015.6
20260510112525 46 191 0.0 0.0 0.00 0.00 0.00 99 1015.4
20260510112022 46 191 0.0 0.0 0.00 0.00 0.00 99 1015.4
20260510111519 46 191 0.0 0.0 0.00 0.00 0.00 99 1015.1
20260510111015 46 191 0.0 0.0 0.00 0.00 0.00 99 1015.0
20260510110511 46 191 0.0 0.0 0.00 0.00 0.00 99 1014.9
20260510110007 46 191 0.0 0.0 0.00 0.00 0.00 99 1015.0
20260510105502 46 191 0.0 0.0 0.00 0.00 0.00 99 1014.9
20260510104958 45 191 0.0 0.0 0.00 0.00 0.00 99 1014.9
20260510104454 45 191 0.0 0.0 0.00 0.00 0.00 99 1014.8
20260510103951 45 191 0.0 0.0 0.00 0.00 0.00 99 1014.9
20260510103448 45 191 0.0 0.0 0.00 0.00 0.00 99 1014.7
20260510102943 45 191 0.0 0.0 0.00 0.00 0.00 99 1014.7
20260510102440 45 191 0.0 0.0 0.00 0.00 0.00 99 1014.7
20260510101936 45 191 0.0 0.0 0.00 0.00 0.00 99 1014.7
20260510101434 45 191 0.0 0.0 0.00 0.00 0.00 99 1014.6
20260510100932 45 191 0.0 0.0 0.00 0.00 0.00 99 1014.5
20260510100428 45 191 0.0 0.0 0.00 0.00 0.00 99 1014.4
20260510095924 45 191 0.0 0.0 0.00 0.00 0.00 99 1014.4
20260510095420 45 191 0.0 0.0 0.00 0.00 0.00 99 1014.2
20260510094919 45 191 0.0 0.0 0.00 0.00 0.00 99 1014.1
20260510094414 45 191 0.0 0.0 0.00 0.00 0.00 99 1014.2
20260510093911 45 191 0.0 0.0 0.00 0.00 0.00 99 1014.1
20260510093406 46 191 0.0 0.0 0.00 0.00 0.00 99 1014.0
20260510092904 45 191 0.0 0.0 0.00 0.00 0.00 99 1013.9
20260510092401 45 191 0.0 0.0 0.00 0.00 0.00 99 1014.0
20260510091901 46 191 0.0 0.0 0.00 0.00 0.00 99 1013.9
20260510091358 46 191 0.0 0.0 0.00 0.00 0.00 99 1014.1
20260510090855 46 191 0.0 0.0 0.00 0.00 0.00 99 1013.8
20260510090351 46 191 0.0 0.0 0.00 0.00 0.00 99 1013.8
20260510085847 46 191 0.0 0.0 0.00 0.00 0.00 99 1013.8
20260510085342 46 191 0.0 0.0 0.00 0.00 0.00 99 1013.7
20260510084838 46 191 0.0 0.0 0.00 0.00 0.00 99 1013.8
20260510084335 46 191 0.0 0.0 0.00 0.00 0.00 99 1013.8
20260510083832 46 191 0.0 0.0 0.00 0.00 0.00 99 1013.6
20260510083328 46 191 0.0 0.0 0.00 0.00 0.00 99 1013.7
20260510082824 46 191 0.0 0.0 0.00 0.00 0.00 99 1013.5
20260510082322 47 191 0.0 0.0 0.00 0.00 0.00 99 1013.5
20260510081820 47 191 0.0 0.0 0.00 0.00 0.00 99 1013.4
20260510081316 47 191 0.0 0.0 0.00 0.00 0.00 99 1013.4
20260510080812 47 191 0.0 0.0 0.00 0.00 0.00 99 1013.3
20260510080307 47 191 0.0 0.0 0.00 0.00 0.00 99 1013.5
20260510075805 47 191 0.0 0.0 0.00 0.00 0.00 99 1013.4
20260510075305 47 191 0.0 0.0 0.00 0.00 0.00 99 1013.6
20260510074759 47 191 0.0 0.0 0.00 0.00 0.00 99 1013.2
20260510074255 47 191 0.0 0.0 0.00 0.00 0.00 99 1013.3
20260510073752 47 191 0.0 0.0 0.00 0.00 0.00 99 1013.3
20260510073248 47 191 0.0 0.0 0.00 0.00 0.00 99 1013.3
20260510072743 46 191 0.0 0.0 0.00 0.00 0.00 99 1013.4
20260510072240 47 191 0.0 0.0 0.00 0.00 0.00 99 1013.3
20260510071737 47 191 0.0 0.0 0.00 0.00 0.00 99 1013.5
20260510071233 47 191 0.0 0.0 0.00 0.00 0.00 99 1013.4
20260510070732 47 191 0.0 0.0 0.00 0.00 0.00 99 1013.5
20260510070229 46 191 0.0 0.0 0.00 0.00 0.00 99 1013.3
20260510065723 47 191 0.0 0.0 0.00 0.00 0.00 99 1013.4
20260510065220 47 191 0.0 0.0 0.00 0.00 0.00 99 1013.4
20260510064717 47 191 0.0 0.0 0.00 0.00 0.00 99 1013.4
20260510064215 47 191 0.0 0.0 0.00 0.00 0.00 99 1013.4
20260510063711 47 191 0.0 0.0 0.00 0.00 0.00 99 1013.3
20260510063207 47 191 0.0 0.0 0.00 0.00 0.00 99 1013.2
20260510062704 47 191 0.0 0.0 0.00 0.00 0.00 99 1013.5
20260510062200 47 191 0.0 0.0 0.00 0.00 0.00 99 1013.4
20260510061655 47 191 0.0 0.0 0.00 0.00 0.00 99 1013.4
20260510061153 47 191 0.0 0.0 0.00 0.00 0.00 99 1013.4
20260510060649 48 191 0.0 0.0 0.00 0.00 0.00 99 1013.5
20260510060145 48 191 0.0 0.0 0.00 0.00 0.00 99 1013.4
20260510055642 48 191 0.0 0.0 0.00 0.00 0.00 99 1013.4
20260510055140 48 191 0.0 0.0 0.00 0.00 0.00 99 1013.5
20260510054635 48 191 0.0 0.0 0.00 0.00 0.00 99 1013.4
20260510054131 48 191 0.0 0.0 0.00 0.00 0.00 99 1013.5
20260510053630 48 191 0.0 0.0 0.00 0.00 0.00 99 1013.6
20260510053127 48 191 0.0 0.0 0.00 0.00 0.00 99 1013.6
20260510052623 49 191 0.0 0.0 0.00 0.00 0.00 99 1013.5
20260510052120 49 191 0.0 0.0 0.00 0.00 0.00 99 1013.5
20260510051615 49 191 0.0 0.0 0.00 0.00 0.00 99 1013.6
20260510051112 49 191 0.0 0.0 0.00 0.00 0.00 99 1013.7
20260510050609 49 191 0.0 0.0 0.00 0.00 0.00 99 1013.7
20260510050106 49 191 0.0 0.0 0.00 0.00 0.00 99 1013.6
20260510045603 49 191 0.0 0.0 0.00 0.00 0.00 99 1013.7
20260510045059 49 191 0.0 0.0 0.00 0.00 0.00 99 1013.7
20260510044556 49 191 0.0 0.0 0.00 0.00 0.00 99 1013.9
20260510044054 49 191 0.0 0.0 0.00 0.00 0.00 99 1013.8
20260510043549 49 191 0.0 0.0 0.00 0.00 0.00 99 1013.8
20260510043045 49 191 0.0 0.0 0.00 0.00 0.00 99 1013.8
20260510042544 49 191 0.0 0.0 0.00 0.00 0.00 99 1013.9
20260510042040 49 191 0.0 0.0 0.00 0.00 0.00 99 1014.0
20260510041537 49 191 0.0 0.0 0.00 0.00 0.00 99 1013.9
20260510041034 49 191 0.0 0.0 0.00 0.00 0.00 99 1013.8
20260510040531 49 191 0.0 0.0 0.00 0.00 0.00 99 1014.0
20260510040027 50 191 0.0 0.0 0.00 0.00 0.00 99 1013.7
20260510035524 50 191 0.0 0.0 0.00 0.00 0.00 99 1013.8
20260510035023 50 191 0.0 0.0 0.00 0.00 0.00 99 1013.8
20260510034522 50 191 0.0 0.0 0.00 0.00 0.00 99 1013.9
20260510034018 50 191 0.0 0.0 0.00 0.00 0.00 99 1013.7
20260510033514 50 191 0.0 0.0 0.00 0.00 0.00 99 1013.9
20260510033012 50 191 0.0 0.0 0.00 0.00 0.00 99 1013.7
20260510032508 51 191 0.0 0.0 0.00 0.00 0.00 99 1013.6
20260510032008 51 191 0.0 0.0 0.00 0.00 0.00 99 1013.6
20260510031504 51 191 0.0 0.0 0.00 0.00 0.00 99 1013.6
20260510031000 51 191 0.0 0.0 0.00 0.00 0.00 99 1013.6
20260510030455 51 191 0.0 0.0 0.00 0.00 0.00 99 1013.7
20260510025953 51 191 0.0 0.0 0.00 0.00 0.00 99 1013.7
20260510025450 51 191 0.0 0.0 0.00 0.00 0.00 99 1013.7
20260510024948 51 191 0.0 0.0 0.00 0.00 0.00 99 1013.7
20260510024444 51 191 0.0 0.0 0.00 0.00 0.00 99 1013.5
20260510023940 52 191 0.0 0.0 0.00 0.00 0.00 99 1013.6
20260510023436 52 192 0.0 0.0 0.00 0.00 0.00 99 1013.6
20260510022933 52 191 0.0 0.0 0.00 0.00 0.00 99 1013.3
20260510022432 52 191 0.0 0.0 0.00 0.00 0.00 99 1013.1
20260510021932 52 191 0.0 0.0 0.00 0.00 0.00 99 1013.2
20260510021430 52 192 0.0 0.0 0.00 0.00 0.00 99 1013.2
20260510020926 53 191 0.0 0.0 0.00 0.00 0.00 98 1012.8
20260510020421 53 191 0.0 0.0 0.00 0.00 0.00 98 1012.7
20260510015917 53 191 0.0 0.0 0.00 0.00 0.00 98 1012.7
20260510015413 53 191 0.0 0.0 0.00 0.00 0.00 98 1012.6
20260510014908 53 191 0.0 0.0 0.00 0.00 0.00 98 1012.6
20260510014406 53 191 0.0 0.0 0.00 0.00 0.00 97 1012.6
20260510013902 54 192 0.0 0.0 0.00 0.00 0.00 97 1012.6
20260510013357 54 191 0.0 0.0 0.00 0.00 0.00 96 1012.5
20260510012852 54 191 0.0 0.0 0.00 0.00 0.00 96 1012.4
20260510012347 54 191 0.0 0.0 0.00 0.00 0.00 96 1012.4
20260510011842 55 191 0.0 0.0 0.00 0.00 0.00 95 1012.3
20260510011338 55 191 0.0 0.0 0.00 0.00 0.00 95 1012.3
20260510010834 55 191 0.0 0.0 0.00 0.00 0.00 95 1012.2
20260510010332 56 191 0.0 0.0 0.00 0.00 0.00 94 1012.1
20260510005828 56 191 0.0 0.0 0.00 0.00 0.00 94 1012.1
20260510005325 56 191 0.0 0.0 0.00 0.00 0.00 93 1012.1
20260510004822 56 191 0.0 0.0 0.00 0.00 0.00 92 1012.0
20260510004320 57 194 0.0 0.0 0.00 0.00 0.00 92 1011.9
20260510003817 57 194 0.0 0.0 0.00 0.00 0.00 91 1011.8
20260510003314 58 194 0.0 0.0 0.00 0.00 0.00 90 1011.8
20260510002813 58 194 0.0 0.0 0.00 0.00 0.00 90 1011.7
20260510002310 58 193 0.0 0.0 0.00 0.00 0.00 89 1011.5
20260510001806 59 193 0.0 0.0 0.00 0.00 0.00 88 1011.5
20260510001305 59 194 0.0 0.0 0.00 0.00 0.00 87 1011.5
20260510000800 60 194 0.0 0.0 0.00 0.00 0.00 86 1011.6
20260510000258 60 194 0.0 0.0 0.00 0.00 0.00 84 1011.5
20260509235755 61 194 0.0 0.0 0.00 0.00 0.00 83 1011.3
20260509235251 62 194 0.0 0.0 0.00 0.00 0.00 82 1011.3
20260509234747 62 194 0.0 0.9 0.00 0.00 0.00 79 1011.2
20260509234244 63 218 0.0 0.0 0.00 0.00 0.00 79 1011.4
20260509233743 64 156 0.0 0.0 0.00 0.00 0.00 78 1011.4
20260509233240 65 156 0.0 0.9 0.00 0.00 0.00 76 1011.4
20260509232736 67 219 0.9 0.9 0.00 0.00 0.00 69 1011.3
20260509232233 66 79 3.5 3.5 0.00 0.00 0.00 66 1011.3
20260509231729 67 84 0.9 2.6 0.00 0.00 0.00 65 1011.3
20260509231227 67 355 0.9 0.9 0.00 0.00 0.00 69 1011.1
20260509230724 67 115 4.3 6.1 0.00 0.00 0.00 63 1011.0
20260509230221 67 110 1.7 2.6 0.00 0.00 0.00 63 1011.2
20260509225716 68 148 3.5 5.2 0.00 0.00 0.00 63 1011.1
20260509225212 68 60 0.0 1.7 0.00 0.00 0.00 62 1011.3
20260509224708 69 93 0.9 3.5 0.00 0.00 0.00 61 1011.4
20260509224205 69 80 0.9 1.7 0.00 0.00 0.00 62 1011.2
20260509223702 69 236 0.9 2.6 0.00 0.00 0.00 63 1011.2
20260509223159 69 84 3.5 3.5 0.00 0.00 0.00 61 1011.2
20260509222656 70 112 1.7 3.5 0.00 0.00 0.00 60 1011.2
20260509222152 70 116 2.6 6.1 0.00 0.00 0.00 60 1010.9
20260509221647 69 82 1.7 1.7 0.00 0.00 0.00 59 1011.2
20260509221143 70 177 0.0 2.6 0.00 0.00 0.00 61 1011.3
20260509220640 69 113 4.3 7.0 0.00 0.00 0.00 59 1011.0
20260509220136 70 233 0.0 0.9 0.00 0.00 0.00 60 1011.3
20260509215632 69 93 5.2 7.8 0.00 0.00 0.00 57 1011.3
20260509215123 69 95 1.7 1.7 0.00 0.00 0.00 59 1011.3
20260509214620 71 114 1.7 3.5 0.00 0.00 0.00 56 1011.3
20260509214117 71 93 1.7 6.1 0.00 0.00 0.00 57 1011.3
20260509213613 72 115 6.1 8.7 0.00 0.00 0.00 56 1011.5
20260509213109 71 331 0.0 2.6 0.00 0.00 0.00 56 1011.4
20260509212607 70 85 1.7 1.7 0.00 0.00 0.00 61 1011.3
20260509212104 69 97 7.8 8.7 0.00 0.00 0.00 59 1011.2
20260509211559 70 112 3.5 5.2 0.00 0.00 0.00 59 1011.2
20260509211056 70 102 0.0 5.2 0.00 0.00 0.00 58 1011.3
20260509210553 72 212 2.6 5.2 0.00 0.00 0.00 56 1011.3
20260509210049 72 100 6.1 7.8 0.00 0.00 0.00 56 1011.4
20260509205543 71 66 1.7 7.8 0.00 0.00 0.00 58 1011.2
20260509205039 72 167 1.7 2.6 0.00 0.00 0.00 58 1011.3
20260509204536 70 74 2.6 5.2 0.00 0.00 0.00 59 1011.5